Find Starlink 30612

NORAD ID: 58106 Int'l Des: 2023-161 Owner: SPXS Country: US Constellation: starlink operational
LEOCIRCULAR

Current View

Loading 3D Globe...

About Starlink 30612

Starlink 30612 (NORAD 58106) is a starlink constellation satellite (v2 mini) launched Oct 21, 2023 by SPXS of US. It operates in LEO, CIRCULAR orbit with a mass of 730.00 kg.

About Starlink 30612

Description loading...

Upcoming Passes

Passes for default location (London). Set your location on the main map for personalized predictions.

Altitude History

Loading altitude history...

Two-Line Element Set

1 58106U 23161K 26173.60032903 -.00001549 00000-0 -34753-4 0 9992
2 58106 53.1624 23.9052 0001193 102.1744 257.9392 15.34375048150673
Epoch: Jun 22, 2026 • Age: 20 hours

Current Status

Altitude 481.8 km
Velocity 7.62 km/s
Sub-Earth Point -52.67°S, 148.55°W
Launch Date Oct 21, 2023
Age 2.6 years
Type internet

Technical Details

Classification Payload
Mass 730.00 kg
Dry Mass 700.00 kg
Total Mass 730.00 kg
Length 0.30 m
Diameter 4.10 m
Span 29.00 m
Shape Box + pan
Manufacturer SPXS
Bus Type Starlink V2M
Phase Status In Orbit
Owner/State SPXS/US

Most Searched